| time (UTC) | temp C | wind direction | speed KPH | gust KPH | rain 1hr cm | rain 24hr cm | rain mn cm | humidity % | barometer mb |
| 20260505053052 | 13 | 4 | 20.9 | 33.8 | 0.00 | 0.00 | 0.00 | 43 | 1006.2 |
| 20260505051609 | 13 | 4 | 29.0 | 41.8 | 0.00 | 0.00 | 0.00 | 43 | 1006.2 |
| 20260505041548 | 15 | 11 | 19.3 | 37.0 | 0.00 | 0.00 | 0.00 | 43 | 1005.8 |
| 20260505040040 | 15 | 6 | 25.7 | 37.0 | 0.00 | 0.00 | 0.00 | 41 | 1005.3 |
| 20260505034539 | 16 | 13 | 32.2 | 40.2 | 0.00 | 0.00 | 0.00 | 39 | 1005.5 |
| 20260505033038 | 17 | 17 | 25.7 | 40.2 | 0.00 | 0.00 | 0.00 | 37 | 1005.2 |
| 20260505031536 | 18 | 12 | 25.7 | 37.0 | 0.00 | 0.00 | 0.00 | 36 | 1004.8 |
| 20260505030036 | 18 | 346 | 19.3 | 32.2 | 0.00 | 0.00 | 0.00 | 36 | 1004.4 |
| 20260505024537 | 19 | 351 | 19.3 | 29.0 | 0.00 | 0.00 | 0.00 | 35 | 1003.7 |
| 20260505023035 | 20 | 19 | 22.5 | 38.6 | 0.00 | 0.00 | 0.00 | 34 | 1002.8 |
| 20260505021535 | 20 | 6 | 24.1 | 46.7 | 0.00 | 0.00 | 0.00 | 33 | 1002.3 |
| 20260505020035 | 21 | 356 | 20.9 | 33.8 | 0.00 | 0.00 | 0.00 | 32 | 1002.0 |
| 20260505014533 | 21 | 20 | 22.5 | 35.4 | 0.00 | 0.00 | 0.00 | 32 | 1001.6 |
| 20260505013033 | 22 | 351 | 24.1 | 37.0 | 0.00 | 0.00 | 0.00 | 32 | 1001.0 |
| 20260505011534 | 23 | 360 | 22.5 | 35.4 | 0.00 | 0.00 | 0.00 | 31 | 1000.6 |
| 20260505010036 | 23 | 10 | 19.3 | 29.0 | 0.00 | 0.00 | 0.00 | 32 | 1000.3 |
| 20260505004531 | 24 | 342 | 20.9 | 32.2 | 0.00 | 0.00 | 0.00 | 33 | 1000.1 |
| 20260505003031 | 25 | 356 | 24.1 | 33.8 | 0.00 | 0.00 | 0.00 | 33 | 999.9 |
| 20260505001532 | 26 | 305 | 19.3 | 29.0 | 0.00 | 0.00 | 0.00 | 32 | 999.7 |
| 20260505000030 | 26 | 332 | 20.9 | 32.2 | 0.00 | 0.00 | 0.00 | 29 | 999.5 |
| 20260504234533 | 27 | 291 | 3.2 | 9.7 | 0.00 | 0.00 | 0.00 | 25 | 999.3 |
| 20260504233029 | 28 | 239 | 6.4 | 14.5 | 0.00 | 0.00 | 0.00 | 20 | 999.3 |
| 20260504231528 | 28 | 285 | 8.0 | 16.1 | 0.00 | 0.00 | 0.00 | 20 | 999.2 |
| 20260504230028 | 28 | 253 | 4.8 | 14.5 | 0.00 | 0.00 | 0.00 | 24 | 999.1 |
| 20260504224527 | 28 | 286 | 6.4 | 14.5 | 0.00 | 0.00 | 0.00 | 21 | 999.1 |
| 20260504223026 | 28 | 329 | 4.8 | 14.5 | 0.00 | 0.00 | 0.00 | 27 | 999.1 |
| 20260504221525 | 28 | 258 | 3.2 | 12.9 | 0.00 | 0.00 | 0.00 | 23 | 999.1 |
| 20260504220024 | 28 | 288 | 8.0 | 24.1 | 0.00 | 0.00 | 0.00 | 21 | 999.1 |
| 20260504214523 | 28 | 243 | 1.6 | 9.7 | 0.00 | 0.00 | 0.00 | 26 | 999.2 |
| 20260504213022 | 28 | 295 | 6.4 | 17.7 | 0.00 | 0.00 | 0.00 | 25 | 999.4 |
| 20260504211520 | 28 | 241 | 11.3 | 17.7 | 0.00 | 0.00 | 0.00 | 19 | 999.4 |
| 20260504210019 | 28 | 286 | 4.8 | 20.9 | 0.00 | 0.00 | 0.00 | 23 | 999.4 |
| 20260504204517 | 28 | 281 | 9.7 | 22.5 | 0.00 | 0.00 | 0.00 | 20 | 999.6 |
| 20260504203022 | 27 | 273 | 9.7 | 25.7 | 0.00 | 0.00 | 0.00 | 23 | 999.7 |
| 20260504201513 | 27 | 318 | 12.9 | 22.5 | 0.00 | 0.00 | 0.00 | 25 | 999.8 |
| 20260504200012 | 27 | 332 | 14.5 | 27.4 | 0.00 | 0.00 | 0.00 | 26 | 999.9 |
| 20260504194512 | 28 | 312 | 6.4 | 17.7 | 0.00 | 0.00 | 0.00 | 24 | 999.9 |
| 20260504193015 | 28 | 301 | 12.9 | 19.3 | 0.00 | 0.00 | 0.00 | 25 | 999.9 |
| 20260504191521 | 28 | 299 | 11.3 | 29.0 | 0.00 | 0.00 | 0.00 | 25 | 999.9 |
| 20260504190007 | 27 | 351 | 17.7 | 30.6 | 0.00 | 0.00 | 0.00 | 27 | 999.8 |
| 20260504184506 | 27 | 324 | 12.9 | 25.7 | 0.00 | 0.00 | 0.00 | 34 | 999.9 |
| 20260504183004 | 27 | 291 | 11.3 | 25.7 | 0.00 | 0.00 | 0.00 | 34 | 1000.0 |
| 20260504181504 | 27 | 261 | 4.8 | 16.1 | 0.00 | 0.00 | 0.00 | 34 | 1000.1 |
| 20260504180100 | 27 | 335 | 9.7 | 19.3 | 0.00 | 0.00 | 0.00 | 35 | 1000.0 |
| 20260504174606 | 26 | 351 | 11.3 | 20.9 | 0.00 | 0.00 | 0.00 | 33 | 1000.1 |
| 20260504173058 | 26 | 335 | 9.7 | 19.3 | 0.00 | 0.00 | 0.00 | 43 | 1000.2 |
| 20260504171553 | 26 | 335 | 11.3 | 19.3 | 0.00 | 0.00 | 0.00 | 40 | 1000.3 |
| 20260504081548 | 13 | 16 | 0.0 | 4.8 | 0.00 | 0.00 | 0.00 | 61 | 1003.2 |